Temp
-4 -5 -6 -6 -5 -5 -5 -5 -5 -6 -6 -6 -7 -6 -6 -7 -7 -8 -9 -8 -7 -6 -6 -5 -5 -5 -5 -6 -6 -7 -7 -7 -7 -8 -8 -8 -8 -8 -8 -9 -9 -9 -9 -9 -9 -8 -8 -8 -8 -8 -9 -10 -10 -9 -9 -9 -9 -8 -8 -8 -7 -6 -6 -6 -5 -5 -5 -5 -4 -4 -4 -4 -4 -4
-4 -5 -6 -6 -6 -6 -6 -6 -6 -6 -6 -7 -7 -7 -7 -7 -7 -8 -9 -9 -8 -8 -7 -6 -6 -6 -6 -6 -7 -7 -7 -7 -7 -8 -8 -8 -8 -8 -9 -9 -9 -9 -9 -9 -9 -9 -8 -8 -8 -8 -9 -10 -10 -10 -10 -9 -9 -9 -8 -8 -8 -6 -6 -6 -6 -6 -6 -5 -5 -5 -5 -5 -5 -4
-5 -5 -6 -6 -6 -6 -6 -6 -7 -7 -7 -7 -7 -7 -7 -7 -7 -8 -9 -9 -9 -9 -8 -8 -7 -7 -7 -7 -7 -7 -7 -8 -8 -8 -8 -8 -8 -9 -9 -9 -9 -9 -9 -9 -9 -9 -9 -8 -8 -9 -9 -10 -10 -10 -10 -10 -10 -9 -9 -9 -8 -7 -6 -7 -7 -6 -6 -6 -5 -5 -5 -5 -5 -5
-6 -6 -6 -6 -6 -6 -6 -7 -7 -7 -7 -8 -8 -8 -8 -8 -8 -8 -9 -10 -10 -10 -9 -8 -8 -8 -8 -9 -9 -8 -8 -8 -8 -8 -9 -9 -8 -9 -9 -9 -9 -9 -9 -9 -9 -9 -9 -9 -9 -9 -9 -9 -10 -10 -10 -10 -10 -10 -10 -9 -9 -8 -7 -7 -7 -6 -6 -6 -6 -5 -5 -5 -5 -5
-6 -7 -7 -6 -6 -7 -7 -7 -8 -8 -8 -8 -8 -8 -8 -8 -8 -8 -9 -9 -10 -10 -10 -9 -9 -9 -9 -10 -10 -10 -10 -9 -9 -9 -9 -9 -9 -9 -9 -9 -9 -9 -9 -9 -9 -9 -9 -9 -9 -9 -9 -9 -10 -10 -10 -10 -10 -10 -10 -10 -9 -9 -8 -7 -7 -7 -7 -7 -6 -6 -6 -5 -5 -5
-7 -7 -7 -7 -7 -7 -7 -8 -8 -8 -8 -8 -8 -8 -8 -8 -8 -8 -9 -9 -10 -11 -11 -10 -10 -10 -10 -10 -11 -11 -11 -11 -10 -9 -9 -9 -9 -9 -9 -9 -9 -9 -9 -9 -9 -9 -9 -9 -9 -9 -9 -9 -9 -9 -10 -10 -10 -11 -10 -10 -10 -10 -9 -8 -8 -7 -7 -7 -7 -6 -6 -6 -5 -5
-7 -7 -7 -7 -7 -7 -8 -8 -9 -9 -9 -9 -9 -9 -8 -8 -8 -8 -9 -9 -10 -11 -11 -11 -11 -10 -11 -11 -11 -12 -12 -12 -12 -11 -10 -10 -10 -10 -10 -10 -10 -9 -9 -9 -9 -9 -9 -9 -9 -9 -9 -9 -9 -9 -9 -9 -10 -10 -10 -10 -10 -10 -10 -9 -9 -8 -8 -7 -7 -7 -6 -6 -6 -5
-7 -7 -7 -7 -7 -8 -8 -8 -9 -9 -9 -9 -9 -9 -9 -9 -9 -9 -9 -9 -10 -11 -12 -12 -11 -11 -11 -12 -12 -12 -12 -12 -12 -11 -11 -10 -10 -10 -10 -10 -10 -10 -10 -9 -9 -10 -10 -10 -10 -10 -9 -9 -9 -9 -9 -9 -9 -9 -10 -10 -10 -10 -10 -10 -10 -10 -9 -8 -8 -7 -7 -6 -6 -6
-7 -7 -7 -7 -8 -8 -8 -8 -9 -10 -9 -10 -10 -10 -9 -9 -9 -9 -9 -10 -10 -11 -12 -12 -12 -11 -12 -12 -13 -13 -13 -13 -13 -13 -12 -11 -11 -11 -10 -11 -12 -12 -12 -11 -10 -10 -10 -10 -10 -9 -9 -9 -9 -9 -9 -9 -9 -9 -9 -10 -10 -10 -10 -10 -10 -10 -10 -10 -9 -8 -8 -7 -7 -6
-7 -7 -7 -8 -8 -8 -8 -8 -9 -10 -10 -10 -10 -10 -10 -9 -9 -10 -10 -10 -11 -12 -12 -13 -13 -13 -12 -13 -13 -13 -13 -14 -15 -14 -13 -13 -13 -12 -12 -13 -14 -14 -13 -11 -10 -10 -10 -9 -9 -9 -9 -9 -9 -9 -9 -9 -9 -9 -10 -10 -10 -10 -10 -11 -11 -11 -11 -10 -10 -10 -9 -8 -7 -7
-8 -8 -8 -8 -8 -8 -8 -8 -9 -10 -10 -9 -10 -10 -10 -10 -10 -10 -10 -11 -11 -12 -13 -13 -13 -13 -13 -13 -14 -14 -14 -15 -15 -15 -15 -15 -15 -14 -14 -15 -15 -14 -13 -11 -10 -10 -10 -9 -9 -9 -9 -9 -9 -9 -10 -9 -9 -10 -10 -10 -10 -10 -11 -11 -12 -12 -12 -11 -11 -11 -10 -9 -9 -8
-8 -8 -8 -8 -9 -8 -8 -8 -9 -9 -10 -9 -10 -10 -10 -10 -10 -10 -11 -11 -12 -12 -13 -13 -14 -14 -14 -14 -14 -15 -15 -16 -16 -16 -16 -16 -16 -15 -16 -16 -15 -14 -13 -11 -10 -10 -10 -9 -9 -9 -9 -9 -10 -10 -9 -9 -9 -10 -10 -10 -10 -11 -11 -12 -12 -12 -12 -12 -12 -11 -11 -10 -10 -9
-8 -9 -9 -8 -9 -9 -9 -9 -9 -9 -10 -10 -10 -10 -10 -10 -10 -11 -11 -12 -12 -13 -13 -14 -14 -15 -15 -15 -15 -15 -16 -16 -16 -16 -17 -17 -17 -17 -16 -14 -13 -13 -13 -12 -11 -10 -10 -10 -10 -10 -10 -9 -10 -9 -9 -9 -9 -10 -10 -11 -11 -11 -12 -12 -12 -12 -12 -12 -12 -12 -11 -11 -11 -10
-8 -9 -9 -9 -9 -9 -9 -9 -9 -10 -10 -10 -10 -11 -11 -11 -11 -11 -11 -12 -12 -13 -14 -14 -14 -15 -15 -15 -16 -16 -16 -16 -17 -17 -17 -17 -17 -18 -17 -14 -12 -12 -13 -13 -12 -11 -12 -13 -12 -12 -12 -11 -11 -11 -10 -11 -11 -11 -12 -12 -12 -12 -13 -13 -13 -13 -13 -12 -12 -13 -12 -12 -11 -11
-9 -9 -9 -9 -9 -9 -10 -10 -10 -10 -11 -11 -11 -11 -11 -11 -11 -11 -11 -12 -12 -13 -14 -14 -15 -15 -15 -16 -16 -16 -16 -16 -17 -17 -17 -18 -18 -18 -18 -15 -13 -12 -13 -16 -15 -12 -13 -15 -14 -14 -14 -12 -12 -12 -11 -12 -13 -13 -14 -14 -14 -14 -14 -14 -14 -14 -14 -13 -13 -13 -13 -12 -12 -11
-9 -9 -9 -9 -9 -9 -10 -10 -11 -11 -11 -11 -12 -12 -12 -12 -12 -12 -12 -12 -13 -13 -14 -14 -15 -15 -16 -16 -16 -15 -16 -16 -16 -17 -17 -18 -18 -18 -18 -17 -15 -13 -15 -17 -16 -13 -13 -15 -15 -14 -13 -12 -12 -12 -12 -13 -14 -14 -14 -14 -14 -15 -15 -15 -15 -14 -14 -14 -13 -13 -13 -13 -12 -12
-9 -9 -9 -9 -10 -10 -10 -11 -11 -11 -12 -12 -12 -12 -12 -12 -12 -12 -12 -13 -13 -14 -14 -14 -15 -15 -15 -16 -15 -15 -16 -16 -16 -17 -17 -17 -18 -17 -17 -16 -14 -14 -15 -16 -17 -14 -12 -14 -15 -13 -12 -12 -12 -12 -13 -14 -14 -13 -13 -14 -14 -14 -14 -15 -15 -15 -14 -14 -13 -13 -13 -13 -12 -12
-9 -9 -9 -9 -10 -10 -10 -11 -11 -12 -12 -12 -13 -13 -13 -12 -12 -13 -13 -14 -14 -14 -14 -15 -15 -15 -15 -15 -15 -15 -16 -16 -17 -18 -17 -16 -16 -16 -15 -15 -14 -13 -14 -15 -17 -14 -11 -13 -15 -13 -12 -12 -13 -14 -14 -14 -14 -14 -14 -15 -15 -15 -15 -15 -15 -15 -14 -14 -13 -13 -13 -12 -12 -12
-10 -9 -9 -10 -10 -10 -10 -11 -11 -11 -12 -12 -13 -13 -13 -13 -13 -13 -14 -14 -14 -14 -15 -15 -15 -15 -15 -15 -15 -15 -16 -17 -17 -17 -16 -15 -15 -15 -15 -14 -13 -13 -13 -14 -17 -15 -12 -13 -14 -12 -12 -13 -14 -15 -15 -13 -14 -15 -15 -15 -15 -15 -15 -16 -15 -15 -14 -14 -13 -13 -13 -12 -12 -12
-10 -10 -10 -10 -10 -10 -10 -11 -11 -12 -12 -13 -13 -13 -13 -13 -13 -14 -14 -14 -14 -14 -15 -15 -15 -15 -15 -15 -15 -16 -17 -17 -16 -15 -14 -14 -15 -15 -15 -14 -12 -13 -13 -13 -16 -16 -13 -13 -14 -13 -13 -15 -15 -14 -14 -13 -14 -15 -14 -14 -15 -15 -15 -16 -16 -15 -14 -14 -14 -13 -13 -12 -12 -12
-10 -10 -11 -11 -10 -10 -10 -11 -12 -12 -12 -13 -13 -13 -13 -13 -13 -14 -14 -14 -14 -15 -15 -14 -14 -14 -14 -14 -15 -15 -16 -15 -15 -14 -14 -14 -14 -14 -14 -13 -12 -13 -12 -12 -15 -16 -14 -13 -16 -15 -14 -15 -16 -14 -13 -13 -14 -14 -14 -15 -16 -16 -16 -16 -16 -15 -15 -14 -14 -13 -13 -12 -12 -12
-10 -11 -11 -11 -11 -11 -11 -12 -12 -13 -13 -13 -13 -13 -13 -13 -13 -13 -14 -14 -14 -14 -14 -14 -14 -14 -14 -14 -14 -15 -15 -14 -14 -14 -14 -14 -14 -14 -14 -14 -13 -13 -12 -12 -14 -16 -15 -16 -18 -17 -15 -15 -15 -14 -13 -13 -14 -14 -15 -16 -16 -16 -17 -16 -16 -15 -15 -14 -14 -13 -13 -13 -12 -12
-10 -11 -11 -11 -11 -11 -12 -12 -13 -13 -13 -13 -13 -13 -13 -13 -13 -13 -14 -14 -14 -14 -14 -14 -14 -14 -14 -14 -14 -14 -14 -14 -14 -14 -14 -14 -14 -14 -14 -14 -15 -14 -12 -12 -15 -17 -18 -18 -19 -19 -19 -17 -14 -13 -14 -15 -15 -15 -16 -16 -16 -16 -16 -16 -16 -15 -15 -15 -14 -14 -13 -13 -12 -12
-10 -11 -11 -12 -12 -12 -12 -12 -13 -14 -13 -13 -13 -13 -13 -13 -13 -14 -14 -14 -14 -14 -13 -13 -13 -14 -14 -14 -14 -14 -14 -14 -14 -14 -14 -14 -14 -14 -14 -14 -15 -15 -13 -14 -17 -18 -19 -19 -18 -19 -22 -22 -18 -15 -14 -14 -15 -15 -15 -16 -16 -15 -15 -16 -15 -15 -15 -14 -14 -14 -13 -13 -12 -12
-10 -11 -11 -12 -12 -12 -12 -13 -14 -14 -13 -13 -13 -13 -13 -13 -14 -14 -14 -13 -13 -13 -13 -13 -14 -14 -14 -14 -14 -14 -14 -14 -14 -14 -14 -14 -14 -14 -14 -14 -15 -14 -13 -14 -17 -18 -19 -19 -19 -20 -22 -23 -22 -19 -15 -13 -14 -14 -15 -16 -16 -15 -15 -16 -15 -15 -15 -14 -14 -14 -14 -13 -12 -12
-10 -11 -11 -12 -12 -12 -13 -13 -14 -14 -14 -14 -13 -13 -14 -14 -14 -14 -13 -13 -13 -13 -13 -13 -14 -14 -14 -14 -14 -14 -14 -14 -14 -14 -14 -14 -14 -14 -14 -14 -14 -14 -14 -14 -16 -18 -19 -19 -19 -21 -22 -22 -22 -21 -19 -15 -14 -14 -16 -16 -16 -16 -16 -16 -16 -15 -15 -14 -14 -14 -14 -13 -12 -12
-10 -11 -11 -12 -12 -12 -13 -14 -14 -14 -14 -14 -13 -14 -14 -14 -13 -13 -13 -13 -13 -13 -13 -14 -14 -14 -14 -14 -14 -14 -13 -13 -14 -14 -14 -14 -14 -14 -14 -13 -14 -14 -14 -14 -15 -17 -19 -19 -20 -21 -22 -22 -22 -22 -21 -18 -15 -15 -16 -16 -16 -17 -16 -16 -16 -15 -15 -15 -14 -14 -13 -13 -13 -12
-10 -11 -11 -12 -12 -13 -13 -14 -14 -14 -14 -14 -14 -15 -14 -13 -13 -13 -13 -13 -13 -13 -14 -14 -14 -14 -14 -13 -13 -13 -13 -14 -14 -14 -14 -14 -14 -14 -13 -13 -13 -14 -14 -14 -15 -16 -18 -19 -21 -22 -22 -23 -22 -22 -20 -18 -17 -16 -16 -16 -16 -16 -16 -16 -16 -14 -14 -14 -14 -14 -13 -13 -13 -12
-11 -11 -12 -12 -13 -13 -14 -14 -14 -15 -15 -15 -15 -14 -14 -13 -13 -13 -13 -13 -14 -14 -14 -14 -14 -14 -14 -14 -14 -14 -14 -14 -14 -13 -14 -14 -14 -14 -13 -13 -13 -13 -14 -14 -15 -16 -18 -20 -21 -22 -22 -22 -21 -20 -19 -18 -17 -17 -17 -17 -16 -15 -15 -15 -15 -14 -13 -13 -13 -13 -13 -13 -12 -12
-11 -12 -12 -13 -13 -14 -14 -14 -15 -15 -15 -14 -14 -14 -14 -14 -13 -13 -13 -14 -14 -14 -14 -14 -14 -14 -14 -14 -14 -14 -14 -14 -14 -14 -13 -13 -13 -14 -13 -13 -13 -12 -13 -14 -15 -15 -17 -19 -21 -22 -21 -20 -19 -18 -17 -17 -17 -17 -16 -17 -17 -15 -14 -14 -14 -14 -13 -12 -12 -13 -13 -12 -12 -11
-12 -12 -13 -13 -14 -14 -14 -15 -15 -14 -14 -13 -14 -14 -14 -14 -13 -13 -14 -14 -14 -14 -14 -14 -14 -14 -14 -14 -14 -15 -14 -14 -14 -14 -14 -14 -14 -14 -14 -13 -13 -12 -12 -13 -14 -15 -16 -17 -18 -20 -19 -18 -18 -17 -16 -16 -17 -17 -16 -16 -17 -16 -14 -13 -13 -13 -13 -12 -12 -12 -12 -12 -11 -11
-12 -13 -13 -14 -14 -14 -14 -15 -14 -14 -14 -14 -14 -14 -14 -13 -13 -14 -14 -14 -14 -14 -14 -14 -14 -14 -14 -14 -14 -14 -14 -14 -14 -15 -15 -14 -14 -15 -14 -14 -14 -13 -13 -13 -13 -13 -14 -15 -16 -17 -18 -18 -17 -16 -16 -16 -16 -16 -17 -16 -16 -16 -15 -13 -12 -11 -11 -12 -12 -12 -12 -11 -10 -10
-13 -13 -14 -14 -14 -14 -14 -14 -14 -14 -14 -14 -14 -14 -13 -13 -13 -14 -14 -14 -14 -14 -14 -14 -14 -14 -14 -14 -14 -14 -14 -15 -15 -15 -15 -15 -15 -15 -15 -15 -15 -15 -14 -14 -13 -13 -13 -13 -14 -15 -16 -16 -16 -15 -15 -16 -16 -17 -17 -17 -16 -15 -13 -12 -11 -10 -11 -12 -11 -11 -11 -10 -9 -9
-13 -13 -13 -14 -14 -14 -14 -14 -14 -14 -14 -14 -14 -13 -13 -13 -13 -14 -14 -14 -14 -14 -14 -14 -14 -14 -14 -14 -14 -14 -14 -15 -15 -15 -15 -15 -15 -15 -15 -15 -15 -15 -15 -15 -14 -14 -13 -13 -13 -12 -13 -14 -15 -15 -15 -16 -16 -17 -18 -17 -16 -15 -13 -11 -10 -10 -10 -11 -11 -10 -10 -9 -9 -8
-12 -13 -13 -14 -14 -14 -14 -14 -14 -14 -14 -14 -13 -13 -13 -13 -13 -14 -13 -14 -14 -14 -14 -14 -14 -15 -15 -15 -15 -15 -15 -15 -15 -15 -15 -15 -15 -16 -16 -16 -16 -15 -16 -15 -15 -15 -15 -14 -14 -13 -12 -12 -12 -13 -15 -16 -17 -18 -17 -16 -16 -15 -13 -10 -10 -10 -10 -10 -10 -9 -9 -8 -8 -7
-12 -13 -13 -13 -13 -13 -14 -14 -14 -14 -14 -13 -13 -13 -13 -13 -13 -13 -13 -14 -14 -14 -14 -14 -15 -15 -15 -15 -15 -15 -15 -15 -15 -15 -15 -15 -15 -16 -16 -16 -16 -16 -16 -16 -16 -15 -15 -15 -15 -14 -14 -13 -13 -13 -13 -15 -17 -18 -18 -16 -15 -14 -12 -10 -9 -9 -9 -9 -9 -9 -7 -7 -7 -7
-12 -12 -13 -13 -13 -13 -13 -14 -14 -13 -13 -13 -13 -13 -13 -13 -13 -13 -14 -14 -14 -14 -14 -15 -15 -15 -15 -15 -15 -15 -15 -16 -16 -16 -16 -15 -16 -16 -16 -16 -16 -16 -16 -16 -16 -16 -16 -16 -16 -16 -15 -16 -17 -16 -14 -13 -15 -17 -18 -17 -15 -14 -13 -11 -9 -9 -8 -8 -8 -8 -7 -6 -6 -6
-12 -12 -13 -13 -13 -13 -13 -13 -13 -13 -13 -13 -13 -13 -13 -13 -13 -14 -14 -14 -14 -14 -15 -15 -15 -15 -15 -15 -15 -15 -16 -16 -16 -16 -16 -16 -16 -16 -16 -16 -16 -16 -16 -16 -16 -16 -16 -16 -16 -16 -16 -18 -19 -19 -16 -14 -14 -15 -17 -17 -15 -14 -14 -12 -11 -9 -8 -7 -7 -6 -6 -6 -5 -5
-12 -13 -13 -13 -13 -13 -13 -13 -13 -13 -13 -13 -13 -13 -13 -13 -13 -14 -14 -14 -14 -14 -15 -15 -15 -15 -15 -15 -15 -16 -16 -16 -16 -16 -16 -16 -16 -17 -17 -17 -17 -17 -17 -16 -16 -16 -16 -16 -16 -16 -16 -17 -18 -18 -18 -16 -15 -15 -15 -16 -15 -15 -15 -14 -13 -11 -9 -7 -6 -5 -5 -5 -5 -5
-13 -13 -13 -13 -13 -13 -13 -13 -13 -13 -13 -13 -13 -13 -13 -13 -13 -14 -14 -14 -14 -14 -15 -15 -15 -15 -15 -16 -16 -16 -16 -16 -16 -17 -17 -17 -17 -17 -17 -17 -17 -17 -17 -17 -17 -17 -17 -17 -17 -17 -16 -17 -16 -16 -16 -16 -15 -14 -14 -14 -15 -15 -15 -15 -14 -12 -9 -7 -6 -5 -5 -5 -5 -5
-13 -13 -13 -13 -13 -13 -13 -13 -13 -13 -13 -13 -13 -13 -13 -13 -13 -14 -14 -14 -14 -14 -15 -15 -15 -15 -16 -16 -16 -16 -16 -17 -17 -17 -17 -17 -17 -17 -17 -17 -18 -18 -18 -18 -18 -18 -17 -17 -17 -17 -16 -16 -15 -14 -15 -15 -15 -13 -13 -13 -14 -14 -14 -14 -14 -13 -11 -8 -7 -6 -5 -6 -6 -5
-13 -13 -13 -13 -13 -13 -13 -13 -13 -13 -13 -13 -13 -13 -13 -13 -14 -14 -14 -14 -14 -14 -15 -15 -15 -15 -16 -16 -16 -16 -17 -17 -17 -17 -17 -17 -17 -17 -17 -18 -18 -18 -18 -18 -18 -18 -18 -17 -17 -16 -16 -15 -15 -15 -15 -16 -16 -15 -13 -13 -13 -13 -13 -13 -13 -13 -12 -9 -8 -7 -8 -7 -6 -6
-13 -13 -13 -13 -13 -13 -13 -13 -13 -13 -13 -13 -13 -13 -13 -13 -14 -14 -14 -14 -14 -14 -15 -15 -15 -15 -16 -16 -16 -17 -17 -17 -17 -17 -18 -18 -18 -17 -17 -18 -18 -18 -18 -18 -18 -18 -18 -17 -17 -16 -16 -15 -16 -16 -15 -15 -16 -16 -15 -13 -13 -12 -12 -12 -12 -13 -12 -11 -9 -9 -10 -10 -9 -9
-13 -13 -13 -13 -13 -13 -13 -13 -13 -13 -13 -13 -13 -13 -13 -13 -14 -14 -14 -14 -14 -15 -15 -15 -15 -15 -16 -16 -16 -17 -17 -17 -17 -18 -18 -18 -18 -18 -18 -18 -18 -18 -18 -18 -18 -18 -18 -17 -17 -17 -17 -16 -16 -16 -16 -16 -16 -16 -15 -14 -13 -12 -12 -12 -11 -11 -11 -11 -10 -10 -11 -11 -10 -10
-13 -13 -13 -13 -13 -13 -13 -13 -13 -13 -13 -13 -13 -13 -13 -14 -14 -14 -14 -14 -14 -15 -15 -15 -15 -16 -16 -16 -16 -17 -17 -17 -18 -18 -18 -18 -18 -18 -18 -18 -18 -18 -18 -19 -18 -18 -18 -18 -17 -17 -17 -17 -17 -17 -17 -16 -16 -16 -15 -15 -14 -13 -12 -12 -12 -11 -11 -11 -11 -11 -11 -11 -10 -10
Height
1370 1373 1375 1376 1376 1378 1381 1382 1383 1384 1385 1386 1387 1388 1390 1392 1392 1392 1391 1389 1390 1393 1394 1397 1398 1398 1398 1398 1398 1398 1398 1398 1397 1395 1394 1393 1393 1393 1393 1392 1391 1391 1391 1390 1389 1389 1389 1388 1387 1387 1386 1386 1386 1386 1385 1384 1383 1382 1381 1380 1380 1380 1379 1379 1378 1378 1377 1377 1377 1377 1377 1377 1377 1377
1364 1367 1369 1370 1371 1373 1375 1377 1378 1379 1380 1381 1382 1383 1385 1386 1387 1387 1387 1385 1386 1388 1389 1391 1393 1394 1394 1394 1393 1393 1393 1392 1392 1390 1389 1388 1388 1388 1387 1386 1387 1386 1385 1385 1384 1383 1383 1382 1382 1381 1380 1380 1380 1380 1379 1377 1376 1376 1375 1375 1374 1374 1374 1373 1372 1371 1371 1371 1371 1371 1370 1371 1371 1371
1359 1360 1362 1364 1365 1367 1370 1372 1373 1374 1375 1375 1377 1378 1380 1381 1381 1383 1384 1381 1380 1383 1385 1387 1388 1389 1389 1388 1388 1388 1388 1387 1387 1386 1384 1383 1383 1383 1382 1381 1381 1381 1380 1379 1378 1378 1377 1377 1376 1375 1375 1374 1374 1373 1373 1371 1371 1370 1370 1369 1369 1368 1368 1367 1366 1366 1365 1364 1365 1365 1364 1364 1364 1364
1354 1354 1355 1357 1359 1362 1364 1367 1368 1369 1369 1370 1372 1373 1375 1376 1377 1379 1380 1377 1376 1379 1381 1383 1384 1384 1384 1383 1383 1384 1383 1383 1383 1382 1380 1379 1379 1378 1377 1376 1376 1375 1374 1374 1373 1372 1372 1371 1370 1370 1369 1369 1368 1367 1366 1365 1365 1364 1363 1363 1362 1361 1361 1360 1359 1359 1359 1358 1358 1358 1357 1357 1356 1357
1349 1350 1350 1351 1353 1356 1359 1361 1363 1364 1364 1365 1366 1368 1369 1371 1372 1374 1375 1374 1374 1375 1377 1378 1380 1380 1380 1379 1379 1379 1379 1379 1378 1377 1376 1375 1374 1373 1372 1371 1370 1370 1369 1368 1368 1367 1366 1365 1364 1364 1363 1362 1361 1360 1359 1358 1358 1357 1356 1356 1355 1354 1353 1353 1353 1352 1352 1352 1351 1350 1350 1350 1349 1350
1343 1345 1345 1346 1348 1351 1353 1356 1358 1359 1360 1361 1362 1362 1364 1366 1367 1370 1371 1370 1371 1372 1373 1374 1375 1376 1376 1375 1375 1375 1375 1374 1374 1372 1371 1370 1369 1368 1367 1365 1364 1364 1365 1363 1362 1361 1359 1359 1358 1358 1357 1356 1355 1354 1352 1352 1351 1350 1349 1348 1348 1347 1346 1346 1345 1345 1344 1344 1343 1344 1344 1343 1342 1343
1338 1339 1340 1341 1343 1345 1347 1350 1352 1354 1356 1357 1357 1357 1359 1361 1362 1365 1367 1367 1367 1368 1369 1371 1372 1372 1372 1371 1371 1371 1371 1370 1369 1367 1366 1366 1365 1363 1362 1360 1358 1358 1359 1358 1356 1354 1353 1353 1352 1351 1350 1349 1348 1347 1346 1345 1344 1343 1342 1341 1340 1339 1338 1337 1337 1336 1336 1336 1336 1336 1336 1336 1335 1335
1331 1333 1334 1335 1337 1339 1342 1344 1346 1349 1352 1353 1354 1354 1355 1356 1358 1360 1362 1363 1364 1366 1366 1367 1368 1368 1368 1367 1367 1367 1367 1366 1364 1363 1361 1361 1360 1359 1358 1356 1353 1352 1352 1351 1350 1349 1348 1347 1346 1345 1343 1342 1341 1339 1338 1337 1336 1335 1334 1333 1332 1331 1330 1329 1328 1328 1327 1327 1327 1328 1328 1328 1328 1328
1325 1327 1329 1330 1332 1334 1336 1338 1340 1343 1346 1349 1350 1351 1351 1352 1354 1356 1358 1359 1361 1362 1363 1364 1365 1365 1364 1363 1363 1363 1363 1361 1360 1358 1357 1356 1355 1354 1353 1351 1348 1347 1346 1344 1343 1343 1341 1340 1339 1337 1336 1334 1333 1332 1331 1330 1329 1328 1326 1325 1324 1323 1322 1321 1320 1320 1319 1318 1318 1318 1319 1319 1319 1320
1320 1321 1323 1325 1326 1328 1330 1332 1335 1338 1341 1344 1346 1347 1348 1349 1351 1352 1353 1355 1357 1359 1360 1361 1362 1361 1360 1359 1359 1360 1360 1358 1356 1354 1352 1351 1350 1349 1347 1346 1345 1343 1340 1338 1337 1336 1334 1333 1331 1329 1328 1327 1325 1324 1323 1322 1321 1320 1319 1317 1316 1314 1314 1313 1312 1312 1311 1310 1309 1308 1309 1309 1310 1312
1315 1316 1317 1319 1321 1322 1324 1327 1330 1333 1336 1339 1342 1343 1345 1347 1348 1348 1350 1352 1354 1355 1357 1358 1358 1358 1357 1356 1356 1356 1356 1355 1353 1352 1349 1347 1346 1346 1344 1342 1340 1338 1335 1332 1330 1329 1327 1325 1324 1322 1320 1319 1318 1317 1316 1315 1314 1312 1311 1309 1308 1306 1305 1304 1304 1303 1302 1301 1300 1299 1299 1300 1301 1303
1310 1311 1312 1314 1316 1317 1319 1322 1325 1328 1331 1335 1337 1340 1342 1344 1344 1345 1346 1348 1350 1352 1354 1354 1355 1355 1354 1353 1353 1353 1353 1351 1350 1350 1347 1343 1341 1341 1339 1337 1335 1332 1329 1326 1323 1322 1320 1317 1315 1313 1311 1310 1310 1309 1308 1307 1306 1305 1303 1301 1299 1297 1296 1295 1294 1294 1292 1291 1290 1289 1290 1291 1291 1293
1304 1306 1307 1309 1311 1313 1315 1318 1321 1324 1327 1330 1333 1336 1339 1340 1340 1341 1343 1345 1347 1349 1350 1351 1352 1351 1350 1350 1350 1349 1349 1348 1347 1346 1344 1340 1338 1336 1332 1330 1330 1327 1323 1320 1317 1315 1313 1309 1307 1305 1302 1301 1301 1300 1299 1298 1296 1295 1294 1292 1290 1288 1287 1285 1285 1284 1283 1282 1281 1280 1280 1281 1282 1283
1299 1301 1303 1305 1307 1309 1312 1315 1317 1320 1323 1327 1330 1333 1335 1336 1337 1338 1339 1341 1343 1345 1347 1348 1348 1348 1346 1346 1347 1346 1346 1345 1343 1342 1340 1337 1335 1333 1327 1323 1324 1324 1319 1314 1310 1307 1306 1303 1299 1297 1295 1293 1292 1291 1289 1288 1287 1286 1284 1282 1281 1279 1277 1275 1274 1274 1273 1272 1271 1271 1270 1271 1273 1274
1294 1296 1298 1300 1302 1305 1308 1311 1314 1316 1320 1324 1327 1330 1331 1332 1333 1334 1335 1337 1340 1342 1343 1344 1345 1344 1343 1343 1344 1343 1342 1341 1340 1338 1337 1334 1331 1329 1325 1319 1317 1319 1318 1312 1304 1298 1299 1299 1293 1289 1288 1287 1286 1285 1282 1281 1279 1277 1275 1274 1272 1270 1268 1267 1265 1264 1264 1263 1262 1262 1262 1262 1264 1265
1290 1292 1294 1296 1298 1301 1304 1307 1310 1313 1317 1320 1323 1326 1327 1328 1329 1330 1332 1334 1337 1339 1341 1341 1341 1340 1340 1340 1340 1339 1339 1337 1336 1335 1333 1331 1328 1325 1323 1318 1314 1315 1315 1311 1302 1291 1290 1294 1289 1283 1282 1281 1279 1277 1275 1273 1271 1269 1267 1265 1263 1261 1259 1258 1257 1255 1254 1254 1254 1254 1254 1254 1255 1256
1286 1288 1290 1292 1294 1297 1301 1304 1307 1311 1314 1317 1319 1322 1324 1324 1325 1327 1329 1332 1335 1337 1338 1337 1337 1337 1336 1337 1336 1336 1336 1334 1332 1331 1328 1327 1325 1321 1320 1316 1312 1312 1311 1308 1301 1286 1280 1285 1284 1276 1275 1275 1271 1268 1265 1264 1263 1260 1258 1256 1254 1252 1251 1248 1247 1246 1246 1246 1246 1246 1246 1246 1247 1248
1282 1284 1286 1288 1290 1293 1297 1300 1304 1308 1311 1314 1316 1319 1320 1320 1322 1323 1326 1329 1332 1334 1334 1333 1333 1334 1333 1333 1333 1333 1333 1330 1329 1327 1324 1322 1321 1318 1316 1314 1310 1309 1308 1306 1299 1282 1272 1278 1277 1268 1268 1267 1262 1259 1257 1255 1254 1251 1248 1247 1245 1243 1242 1240 1239 1239 1238 1238 1238 1238 1239 1239 1240 1240
1278 1281 1283 1285 1287 1290 1293 1297 1301 1304 1308 1311 1313 1315 1317 1317 1319 1321 1324 1327 1330 1331 1331 1330 1331 1331 1330 1330 1329 1329 1329 1327 1325 1324 1321 1319 1317 1314 1312 1309 1306 1306 1304 1302 1296 1280 1268 1272 1271 1262 1262 1260 1253 1251 1249 1246 1246 1244 1241 1239 1237 1234 1233 1232 1231 1231 1231 1230 1230 1230 1231 1232 1233 1233
1275 1278 1280 1282 1284 1287 1290 1294 1298 1302 1305 1308 1310 1312 1314 1314 1316 1319 1322 1325 1327 1328 1328 1328 1328 1328 1327 1327 1326 1326 1326 1324 1322 1320 1318 1317 1315 1311 1306 1303 1300 1301 1298 1295 1291 1277 1265 1268 1266 1256 1255 1253 1245 1242 1242 1239 1238 1236 1234 1232 1229 1227 1226 1224 1223 1223 1223 1223 1223 1223 1224 1224 1225 1227
1272 1274 1277 1279 1281 1285 1288 1291 1295 1299 1302 1305 1307 1309 1311 1312 1314 1317 1320 1323 1324 1325 1325 1325 1324 1324 1324 1323 1323 1323 1322 1321 1318 1317 1315 1313 1311 1307 1301 1297 1294 1294 1292 1289 1286 1276 1264 1265 1263 1253 1248 1245 1239 1235 1233 1232 1231 1229 1226 1224 1222 1220 1219 1217 1216 1216 1215 1216 1216 1216 1217 1217 1218 1220
1270 1272 1274 1277 1279 1282 1285 1289 1293 1296 1299 1302 1304 1306 1308 1309 1312 1315 1317 1320 1321 1321 1321 1321 1321 1321 1321 1321 1320 1320 1319 1317 1315 1313 1311 1309 1306 1302 1298 1293 1288 1286 1285 1283 1280 1272 1263 1261 1260 1251 1242 1234 1229 1228 1227 1224 1223 1221 1219 1217 1215 1213 1212 1210 1209 1208 1208 1208 1208 1208 1209 1210 1212 1214
1268 1270 1272 1274 1277 1280 1284 1288 1291 1294 1296 1299 1301 1303 1305 1307 1310 1313 1315 1316 1317 1318 1318 1318 1319 1319 1319 1318 1318 1316 1315 1314 1311 1309 1307 1305 1302 1298 1295 1291 1285 1280 1278 1276 1274 1267 1261 1258 1256 1252 1245 1231 1218 1218 1220 1218 1216 1215 1213 1210 1207 1205 1204 1201 1199 1199 1198 1198 1199 1200 1201 1203 1205 1207
1265 1268 1270 1272 1275 1278 1282 1286 1290 1293 1294 1296 1299 1301 1303 1306 1309 1311 1312 1313 1314 1315 1316 1316 1317 1317 1316 1316 1315 1314 1312 1311 1308 1307 1305 1302 1298 1294 1290 1287 1284 1279 1276 1274 1271 1263 1257 1255 1251 1250 1250 1239 1221 1212 1212 1212 1210 1209 1206 1203 1200 1197 1196 1194 1191 1190 1190 1190 1191 1192 1193 1196 1198 1200
1263 1265 1267 1270 1273 1277 1280 1284 1289 1292 1293 1295 1297 1299 1302 1305 1307 1308 1309 1310 1312 1313 1313 1314 1314 1314 1314 1313 1312 1311 1309 1308 1306 1304 1302 1298 1295 1291 1287 1283 1279 1276 1274 1273 1269 1261 1254 1251 1247 1244 1244 1240 1228 1216 1208 1204 1203 1203 1200 1196 1193 1191 1189 1187 1185 1184 1183 1183 1184 1185 1186 1188 1190 1192
1261 1264 1267 1269 1272 1276 1279 1283 1287 1291 1292 1293 1296 1298 1301 1302 1303 1305 1306 1308 1309 1310 1311 1312 1312 1311 1311 1310 1309 1308 1306 1305 1303 1301 1298 1295 1292 1288 1285 1281 1276 1272 1270 1269 1266 1260 1251 1246 1244 1241 1237 1233 1227 1220 1210 1201 1197 1198 1196 1192 1189 1186 1183 1182 1180 1178 1178 1178 1178 1179 1180 1181 1183 1184
1260 1263 1266 1269 1272 1275 1279 1282 1287 1290 1291 1292 1294 1297 1298 1299 1301 1303 1305 1306 1307 1308 1309 1309 1309 1309 1308 1307 1306 1305 1303 1302 1299 1297 1294 1292 1289 1286 1283 1280 1275 1270 1266 1263 1261 1257 1249 1243 1240 1237 1233 1228 1222 1215 1208 1200 1195 1193 1191 1187 1184 1181 1178 1176 1174 1172 1172 1173 1172 1173 1174 1174 1175 1177
1260 1263 1266 1269 1271 1275 1279 1283 1287 1289 1290 1291 1293 1295 1296 1297 1299 1301 1303 1304 1305 1306 1307 1307 1306 1306 1305 1304 1303 1301 1300 1298 1295 1294 1292 1289 1287 1284 1281 1278 1273 1268 1263 1259 1256 1252 1246 1240 1235 1232 1229 1225 1218 1210 1202 1197 1194 1191 1187 1182 1178 1175 1173 1171 1168 1167 1166 1166 1166 1167 1168 1168 1168 1171
1260 1263 1266 1269 1272 1275 1279 1283 1285 1287 1289 1290 1292 1293 1294 1296 1298 1299 1301 1303 1304 1304 1305 1304 1304 1303 1302 1301 1300 1298 1297 1295 1292 1291 1289 1287 1285 1282 1278 1275 1271 1266 1262 1257 1252 1249 1244 1237 1232 1229 1225 1220 1214 1206 1200 1195 1192 1190 1186 1180 1173 1168 1166 1164 1162 1160 1160 1160 1160 1161 1162 1162 1162 1165
1260 1263 1266 1269 1272 1276 1279 1281 1283 1285 1286 1288 1289 1291 1293 1295 1297 1298 1300 1301 1302 1302 1302 1302 1301 1301 1299 1298 1297 1296 1294 1292 1290 1288 1286 1284 1282 1278 1275 1272 1269 1265 1260 1255 1250 1245 1240 1235 1230 1225 1218 1213 1208 1203 1199 1195 1190 1186 1185 1181 1172 1163 1159 1158 1157 1155 1154 1154 1155 1156 1157 1157 1158 1160
1260 1263 1266 1269 1271 1274 1277 1279 1281 1283 1285 1286 1288 1290 1292 1294 1295 1297 1298 1299 1300 1300 1300 1300 1299 1298 1297 1296 1295 1294 1292 1290 1288 1285 1283 1281 1278 1275 1272 1268 1265 1262 1259 1255 1249 1243 1237 1232 1227 1221 1214 1208 1203 1199 1198 1195 1191 1185 1182 1179 1173 1164 1157 1154 1152 1151 1150 1150 1151 1152 1152 1152 1153 1156
1259 1262 1264 1267 1269 1272 1275 1278 1280 1282 1284 1286 1288 1289 1291 1293 1294 1296 1297 1297 1298 1298 1298 1298 1297 1296 1296 1295 1293 1292 1290 1288 1286 1284 1281 1279 1276 1273 1269 1265 1262 1258 1255 1252 1248 1242 1236 1230 1225 1219 1212 1205 1199 1197 1196 1194 1191 1187 1181 1175 1169 1163 1156 1152 1149 1148 1148 1148 1148 1148 1147 1148 1149 1152
1257 1260 1263 1266 1269 1272 1274 1277 1279 1281 1283 1285 1286 1288 1290 1292 1293 1294 1295 1295 1296 1296 1296 1296 1295 1295 1294 1293 1292 1290 1289 1287 1285 1282 1280 1277 1274 1270 1267 1264 1260 1255 1251 1247 1243 1238 1233 1228 1223 1217 1211 1204 1198 1194 1193 1192 1190 1186 1180 1173 1165 1159 1153 1150 1148 1146 1146 1146 1145 1145 1145 1145 1146 1148
1257 1260 1263 1266 1269 1271 1274 1276 1278 1280 1281 1283 1285 1287 1289 1290 1291 1292 1293 1293 1294 1294 1294 1294 1294 1293 1293 1291 1290 1289 1287 1286 1283 1281 1278 1275 1272 1269 1265 1262 1258 1254 1249 1245 1240 1235 1230 1224 1219 1214 1209 1204 1198 1195 1193 1192 1189 1184 1177 1171 1165 1157 1152 1149 1147 1146 1146 1145 1144 1143 1143 1143 1144 1146
1257 1260 1263 1266 1268 1271 1273 1275 1277 1279 1281 1282 1284 1286 1287 1288 1290 1291 1291 1292 1292 1292 1293 1293 1292 1292 1291 1290 1289 1287 1286 1284 1281 1279 1276 1273 1270 1267 1264 1260 1256 1253 1248 1244 1239 1234 1229 1222 1215 1210 1205 1201 1198 1195 1194 1192 1188 1181 1174 1169 1163 1157 1152 1149 1148 1147 1145 1144 1143 1142 1143 1143 1143 1144
1258 1260 1263 1265 1268 1270 1272 1274 1276 1278 1280 1281 1283 1285 1286 1287 1288 1289 1289 1290 1290 1291 1291 1291 1291 1290 1290 1289 1287 1286 1284 1282 1279 1277 1275 1272 1268 1265 1262 1259 1255 1252 1248 1243 1239 1234 1229 1224 1217 1211 1205 1200 1196 1194 1193 1192 1188 1181 1174 1167 1162 1157 1153 1150 1149 1147 1144 1143 1142 1141 1141 1142 1143 1143
1258 1260 1263 1265 1267 1269 1271 1273 1275 1277 1279 1280 1282 1283 1285 1286 1287 1288 1288 1288 1289 1289 1290 1290 1290 1289 1288 1287 1286 1284 1282 1280 1278 1275 1273 1270 1267 1264 1260 1257 1254 1250 1247 1243 1239 1235 1230 1225 1220 1214 1208 1202 1198 1194 1191 1188 1186 1183 1176 1169 1163 1159 1155 1151 1148 1146 1143 1141 1141 1141 1141 1142 1143 1143
1258 1260 1262 1264 1266 1268 1270 1272 1274 1275 1277 1279 1281 1282 1283 1284 1285 1286 1286 1287 1288 1288 1288 1288 1288 1288 1287 1286 1284 1283 1281 1279 1277 1274 1271 1268 1265 1262 1259 1256 1253 1250 1247 1243 1240 1236 1232 1227 1222 1217 1211 1206 1201 1196 1190 1184 1182 1180 1177 1172 1166 1161 1156 1152 1149 1146 1143 1140 1140 1141 1142 1143 1143 1143
1259 1261 1262 1264 1266 1268 1269 1271 1273 1275 1277 1278 1279 1281 1282 1283 1284 1284 1285 1286 1286 1287 1287 1287 1287 1286 1285 1284 1283 1281 1280 1278 1276 1273 1271 1268 1264 1262 1259 1255 1252 1249 1246 1243 1239 1236 1232 1227 1223 1219 1215 1210 1205 1201 1196 1190 1184 1180 1178 1175 1170 1164 1159 1154 1150 1147 1144 1142 1141 1142 1142 1143 1144 1144
1259 1261 1262 1264 1265 1267 1268 1270 1272 1274 1276 1277 1278 1280 1281 1282 1282 1283 1284 1284 1285 1285 1286 1285 1285 1284 1283 1282 1281 1280 1278 1277 1275 1272 1270 1267 1265 1262 1259 1256 1253 1249 1246 1242 1239 1235 1232 1228 1224 1220 1216 1213 1209 1204 1199 1194 1188 1183 1180 1177 1172 1167 1163 1157 1153 1149 1146 1144 1143 1143 1143 1144 1145 1146
1259 1261 1262 1263 1265 1266 1268 1270 1271 1273 1275 1276 1277 1278 1280 1280 1281 1282 1282 1283 1284 1284 1284 1284 1283 1283 1282 1281 1280 1279 1277 1276 1274 1271 1269 1267 1264 1262 1259 1256 1253 1249 1246 1242 1239 1236 1232 1230 1226 1222 1218 1214 1210 1204 1198 1192 1187 1183 1180 1177 1173 1169 1166 1161 1157 1153 1150 1148 1146 1145 1145 1146 1146 1147
1259 1261 1262 1263 1264 1266 1267 1269 1271 1272 1274 1275 1276 1277 1278 1279 1280 1280 1281 1282 1282 1282 1282 1282 1282 1281 1280 1279 1278 1277 1276 1274 1273 1270 1268 1266 1263 1261 1258 1256 1252 1249 1246 1243 1240 1237 1234 1231 1228 1224 1220 1215 1209 1204 1199 1194 1190 1186 1182 1178 1174 1171 1168 1164 1160 1157 1154 1151 1149 1148 1148 1149 1148 1148
1259 1260 1262 1263 1264 1265 1267 1268 1270 1271 1272 1274 1275 1276 1277 1277 1278 1279 1279 1280 1281 1281 1281 1281 1280 1279 1279 1278 1277 1275 1274 1273 1271 1269 1267 1265 1262 1260 1257 1255 1252 1249 1246 1244 1241 1238 1235 1231 1227 1223 1220 1215 1211 1206 1202 1198 1194 1189 1184 1180 1176 1173 1170 1167 1164 1161 1159 1156 1153 1152 1152 1152 1152 1152
1258 1259 1260 1262 1263 1264 1266 1267 1268 1270 1271 1272 1273 1275 1276 1276 1277 1278 1278 1279 1279 1279 1279 1279 1278 1278 1277 1276 1275 1274 1273 1271 1270 1268 1266 1264 1261 1259 1257 1254 1252 1249 1246 1243 1240 1238 1234 1231 1227 1223 1220 1216 1212 1209 1205 1201 1196 1192 1187 1183 1179 1175 1172 1169 1167 1164 1162 1160 1157 1156 1155 1155 1154 1155
1257 1258 1259 1260 1262 1263 1264 1265 1267 1268 1269 1271 1272 1273 1274 1275 1275 1276 1276 1277 1277 1278 1278 1277 1277 1276 1275 1275 1274 1272 1271 1270 1268 1267 1265 1263 1261 1258 1256 1254 1251 1249 1246 1242 1239 1236 1233 1230 1227 1224 1221 1218 1215 1211 1208 1204 1199 1195 1190 1186 1182 1178 1175 1172 1169 1167 1165 1163 1161 1159 1158 1158 1157 1157
Wind_Speed
42 44 46 47 49 47 45 44 44 41 39 37 37 38 37 35 34 31 30 32 32 29 26 24 22 22 22 22 22 22 24 25 26 27 28 28 28 27 27 28 29 30 31 33 34 35 35 35 36 36 34 32 32 33 33 34 35 36 37 38 39 40 41 42 42 43 45 45 46 47 47 48 48 48
41 42 45 47 49 49 47 46 44 42 39 38 37 38 37 36 36 35 33 33 31 29 27 25 23 23 23 24 25 25 26 26 27 29 30 30 29 28 29 30 30 30 32 33 34 35 35 35 35 36 34 33 33 34 35 36 36 37 38 38 40 41 40 42 44 44 45 46 45 46 47 48 48 48
41 42 44 47 49 50 48 46 45 43 40 38 37 37 37 37 37 35 33 34 32 28 27 25 24 24 25 27 27 27 27 28 28 30 32 32 31 30 31 31 31 32 33 34 35 35 35 35 35 35 35 34 34 35 37 37 37 37 38 39 40 41 41 42 44 44 45 47 46 46 47 48 49 50
42 43 44 45 48 49 48 47 46 44 41 39 37 37 37 37 36 35 34 36 35 31 29 28 26 26 27 29 29 29 29 30 29 30 32 33 32 32 33 33 32 33 34 34 35 34 34 34 34 34 35 36 36 37 37 38 38 38 39 40 40 41 42 44 44 44 45 46 47 47 49 50 50 51
43 44 44 44 46 47 47 47 47 46 43 40 38 37 37 37 36 35 34 36 37 35 32 30 28 27 28 30 31 31 31 31 30 31 33 34 34 34 33 34 34 34 34 34 34 33 33 33 34 35 35 37 38 39 39 39 39 39 39 39 39 40 42 44 45 46 46 46 48 49 49 51 53 51
44 45 45 45 45 45 46 46 47 47 44 41 38 37 38 37 36 35 34 35 35 35 33 30 28 28 29 31 32 32 33 33 33 34 35 36 36 35 34 35 36 34 33 33 32 31 32 32 33 35 36 38 40 40 40 40 40 40 40 40 40 41 42 44 46 48 48 48 49 49 49 51 53 53
44 45 45 45 44 44 44 45 47 47 45 41 39 38 37 37 36 34 33 33 34 34 33 31 29 28 29 31 32 33 34 34 36 36 37 37 36 35 34 35 37 35 32 31 31 31 32 33 34 36 38 40 41 41 41 42 42 42 42 42 42 43 44 45 47 49 50 51 52 51 50 51 52 53
43 45 45 45 44 44 44 44 46 47 45 41 39 38 37 36 35 33 32 32 32 32 32 31 29 28 29 31 33 34 34 35 36 37 37 37 35 34 34 35 37 35 32 32 32 33 34 36 37 38 39 41 41 42 42 42 42 42 43 42 42 43 44 45 46 46 47 50 53 54 53 52 52 51
42 44 45 44 43 43 43 44 46 47 46 42 40 39 37 36 34 32 31 30 30 31 32 32 30 28 29 32 33 33 34 34 34 35 36 36 35 34 35 36 36 34 34 36 36 36 37 37 38 38 40 41 41 41 41 41 41 42 42 42 43 44 44 45 46 45 45 47 49 52 55 56 56 52
43 43 44 44 43 43 43 43 45 46 46 43 41 40 38 35 32 30 30 29 29 30 31 31 30 29 30 32 32 33 33 29 28 32 35 34 35 37 37 36 34 34 38 41 40 39 39 37 37 38 40 40 40 40 40 40 41 41 42 43 44 44 44 44 44 44 45 46 47 50 54 57 59 57
44 43 43 43 43 43 42 42 43 44 45 43 41 40 37 33 30 29 29 28 28 29 30 30 30 30 30 31 31 32 29 24 24 28 30 31 35 37 36 35 36 39 42 44 43 41 39 38 38 38 40 41 41 41 41 41 41 42 43 43 43 43 43 43 43 44 45 46 48 51 54 55 57 59
44 43 42 42 42 42 41 41 41 41 42 42 41 39 35 31 30 29 28 27 27 28 29 29 29 29 29 30 30 28 26 24 25 25 26 31 36 37 38 39 41 43 45 45 43 40 39 40 41 41 42 43 42 42 42 41 41 41 41 41 41 42 44 44 45 46 47 47 48 53 55 54 54 56
43 43 42 41 40 41 40 39 38 37 38 40 39 36 32 30 29 28 27 26 27 28 28 29 28 27 27 28 28 27 26 26 26 26 28 33 36 38 42 43 41 41 43 42 42 42 42 44 44 44 45 45 44 44 43 42 40 40 40 41 42 43 45 46 47 47 48 48 49 52 55 55 53 53
43 42 41 40 39 39 39 38 36 35 36 36 34 31 29 29 28 27 27 27 27 27 28 28 26 25 27 27 26 26 27 26 27 30 31 33 35 38 43 44 39 36 38 41 44 46 45 45 47 48 48 48 48 47 46 44 43 43 43 44 44 44 46 47 48 48 47 47 48 50 52 52 51 50
43 41 40 38 37 37 37 37 36 35 35 33 30 28 28 27 27 26 26 26 26 26 26 25 24 24 26 26 25 26 28 29 31 33 33 33 36 37 39 42 41 36 35 39 47 51 47 45 49 51 51 51 49 47 46 46 46 45 44 43 42 43 45 46 47 48 48 47 47 48 48 48 48 48
42 40 38 36 35 35 36 36 35 35 33 30 29 28 28 26 26 25 25 24 23 23 22 22 23 24 24 24 26 28 30 32 33 32 31 32 34 36 37 41 43 39 35 38 47 55 52 48 51 53 52 50 48 47 47 46 45 45 44 42 42 42 44 45 46 47 48 47 46 47 47 46 46 47
41 39 36 34 34 33 34 35 34 34 31 29 28 27 27 26 25 24 23 21 20 19 19 22 23 23 23 25 28 30 31 31 30 29 30 31 33 35 37 41 43 42 41 44 50 56 55 51 51 52 49 48 48 48 47 46 46 47 45 43 42 42 42 44 44 44 45 45 45 45 45 45 45 45
39 37 34 32 32 32 33 33 33 32 30 29 28 27 26 25 23 22 21 20 21 21 22 24 24 24 26 29 31 30 27 25 25 26 29 32 34 37 39 41 43 41 41 43 46 52 54 50 50 51 48 47 49 49 49 48 47 47 45 43 41 40 41 42 43 43 43 43 43 44 44 44 44 44
36 34 31 30 30 30 30 30 31 31 30 29 28 27 26 24 23 22 22 22 24 26 27 27 26 27 30 30 27 23 20 21 24 27 30 32 35 39 40 41 41 38 36 36 38 47 53 49 47 50 47 47 51 51 50 50 48 45 43 41 38 36 38 40 42 43 42 42 42 43 43 44 43 44
33 31 29 30 29 26 26 27 28 30 30 28 28 28 27 25 23 23 24 25 27 28 28 28 28 28 25 21 18 17 19 23 26 27 29 30 32 36 39 39 39 36 35 36 36 44 50 46 44 49 49 49 54 54 50 49 46 41 38 36 34 32 33 37 40 41 42 42 42 41 42 43 43 43
29 30 29 28 26 23 23 24 26 28 28 27 28 27 26 25 24 24 26 27 27 28 27 26 24 21 16 14 15 17 19 22 24 26 28 28 29 33 36 39 40 38 36 35 33 38 45 42 40 48 52 53 56 56 50 44 39 37 36 36 36 34 33 35 37 38 40 41 42 42 41 41 42 42
27 27 26 23 22 22 21 22 24 26 27 27 28 26 24 24 24 24 26 26 25 25 23 20 16 13 12 13 14 15 16 19 22 24 26 27 28 32 34 37 41 40 38 35 30 33 40 41 39 46 54 58 57 52 44 41 40 41 42 42 42 41 38 36 36 37 38 39 40 41 41 41 40 40
25 24 22 21 20 19 19 21 24 25 26 27 26 24 23 23 23 22 22 22 21 19 16 13 11 10 10 11 12 13 15 18 20 23 25 26 27 30 33 35 37 39 39 37 32 33 38 40 40 41 44 51 55 49 43 43 46 47 46 45 43 41 36 32 33 35 39 40 39 39 40 40 40 39
25 23 21 20 19 18 19 22 23 23 24 24 22 22 22 21 19 19 19 18 16 14 13 10 9 8 9 9 10 12 14 16 18 21 22 24 26 29 32 33 33 36 37 33 29 33 38 39 41 39 33 37 47 50 48 47 47 46 46 45 42 37 32 29 28 30 35 40 40 39 39 38 39 39
25 23 21 20 20 21 22 23 22 23 23 20 19 20 18 17 16 16 16 15 13 12 11 9 7 7 7 8 9 11 13 15 17 19 20 23 25 27 30 33 34 35 33 25 21 30 36 36 38 39 35 36 43 48 48 46 44 42 42 43 41 38 34 31 29 27 27 32 35 36 37 37 38 40
26 22 18 19 22 23 23 23 23 23 21 19 17 16 15 15 16 15 15 14 12 10 8 7 6 6 7 8 10 12 13 15 17 19 20 22 24 25 28 31 33 35 32 24 19 24 31 33 34 35 37 39 43 46 46 45 42 40 40 41 40 39 36 34 31 28 25 26 28 30 32 33 36 40
26 20 16 19 23 23 22 22 22 22 21 20 16 14 15 15 15 15 14 12 10 8 6 5 5 6 7 9 10 12 13 15 17 18 20 22 23 24 26 28 30 32 32 27 23 22 26 31 32 32 35 39 42 44 47 44 40 40 41 41 39 37 35 33 31 30 27 26 28 28 29 29 33 38
22 19 17 20 23 22 21 21 22 23 22 19 15 13 14 14 14 14 12 10 8 7 5 4 5 6 8 9 10 12 14 16 17 18 20 21 22 23 24 25 28 30 30 30 28 26 26 29 31 31 33 36 39 44 46 43 39 38 41 42 39 36 33 31 31 30 28 27 26 25 27 28 30 35
17 17 18 21 22 21 22 23 22 21 20 17 16 15 13 13 13 12 11 9 7 6 4 4 4 5 7 9 10 12 14 16 18 19 19 20 21 22 23 23 25 27 29 31 30 29 28 28 30 31 33 34 38 42 42 41 39 36 39 43 43 37 31 29 29 28 26 25 24 24 27 29 30 34
15 18 19 20 22 23 24 24 23 21 20 17 16 15 13 14 14 11 10 10 8 5 4 3 3 4 6 8 10 12 14 16 18 19 20 20 20 22 23 23 23 25 28 31 31 31 30 29 29 30 32 33 35 37 37 36 36 36 38 41 42 38 29 23 23 23 21 21 23 24 26 28 29 33
16 20 21 21 25 27 27 25 22 20 18 15 14 15 15 15 14 11 10 9 7 5 3 2 2 4 6 8 10 12 14 15 17 19 20 21 21 22 23 24 24 24 25 28 30 31 33 33 30 27 28 32 33 33 31 28 30 34 38 39 37 35 28 21 18 19 18 18 20 23 25 27 29 31
21 24 26 27 30 29 26 23 20 17 15 14 15 17 17 15 13 12 11 8 6 5 3 1 2 4 7 8 10 12 14 16 18 19 20 21 22 23 24 25 26 27 27 28 29 30 33 35 32 24 22 28 31 29 26 24 25 32 38 37 34 32 27 20 15 14 15 17 19 21 23 25 26 30
25 27 29 30 30 28 25 22 20 17 16 17 18 18 17 15 13 12 11 9 6 4 2 0 2 4 6 8 10 12 14 16 18 19 21 22 22 24 24 24 27 29 30 32 33 32 34 35 34 27 18 20 26 25 22 22 25 30 35 35 33 32 26 17 11 10 12 16 18 19 20 21 23 27
26 27 28 29 28 26 23 21 19 18 18 19 20 18 16 15 14 11 11 9 6 4 2 0 2 4 7 9 11 13 14 16 18 19 21 23 23 24 25 25 26 28 30 32 34 35 36 38 37 33 24 15 13 14 13 16 24 30 32 32 33 32 25 15 8 8 11 13 16 16 16 17 19 23
25 26 26 26 26 23 21 20 18 19 20 20 20 18 16 15 14 12 10 9 6 4 2 1 2 4 7 9 11 14 15 17 19 20 21 23 24 25 26 27 27 28 30 31 34 36 37 39 41 40 36 28 20 13 8 10 19 28 31 31 32 31 24 13 7 6 9 13 16 16 14 13 14 17
22 23 22 22 22 21 20 19 19 20 21 21 19 18 16 14 14 12 10 8 6 4 3 1 2 4 7 9 11 14 16 17 20 21 22 24 25 26 27 27 28 28 29 30 33 35 36 38 40 41 41 39 35 28 20 13 14 24 32 33 31 29 23 12 8 7 5 12 18 17 14 12 12 13
19 20 19 18 19 18 19 20 20 21 22 20 18 17 15 14 13 12 10 9 6 4 3 2 2 4 7 9 11 14 16 18 20 22 23 25 26 27 28 29 29 29 29 29 31 33 34 36 37 38 38 38 37 36 32 24 19 20 26 30 30 28 24 16 12 12 6 9 18 17 15 13 11 13
15 18 18 16 16 18 19 20 21 22 22 21 18 17 16 15 14 12 10 9 7 5 4 3 3 4 6 9 11 13 16 17 19 21 23 25 26 28 29 30 30 30 30 29 29 31 32 34 36 36 35 34 33 34 35 34 31 26 22 25 27 26 25 23 20 19 13 3 12 13 12 12 9 8
13 14 14 15 16 18 19 21 22 22 22 20 17 16 15 14 14 12 11 9 8 6 5 4 3 4 6 9 11 13 15 17 19 21 23 25 26 28 29 30 31 31 30 30 30 30 31 33 35 34 33 31 30 28 27 30 34 31 22 18 22 24 25 26 26 25 20 12 10 9 9 9 6 6
12 11 11 13 16 17 18 20 21 21 20 18 16 15 15 14 13 12 11 9 8 7 6 5 5 6 7 9 11 13 15 17 18 20 22 23 25 27 28 29 30 31 31 31 31 31 31 32 33 33 33 31 29 27 26 27 32 32 23 15 16 20 23 25 25 25 22 16 14 15 14 13 11 12
12 10 10 12 14 16 18 20 21 21 20 18 16 15 15 14 13 12 11 10 9 8 7 6 6 7 8 10 11 12 14 16 18 19 21 22 24 25 27 28 29 30 31 31 31 31 30 30 29 29 30 30 29 31 32 34 35 34 29 20 16 16 18 20 22 22 20 14 12 13 14 14 14 15
12 10 10 11 13 15 17 19 21 21 20 18 17 15 15 14 13 12 11 10 9 9 8 7 8 8 9 10 11 13 14 16 17 19 21 23 24 25 27 28 29 30 30 30 30 30 28 28 27 27 27 29 31 33 34 35 35 34 32 27 21 16 15 17 18 19 18 14 12 13 13 12 11 11
12 11 11 12 13 15 17 19 20 21 20 18 16 15 15 14 13 12 11 11 10 10 9 9 9 9 10 11 12 13 14 16 17 19 20 22 24 25 27 28 28 28 29 28 28 28 27 27 28 28 27 28 31 32 32 32 33 33 33 32 28 21 16 14 15 16 16 14 13 15 15 13 11 10
12 12 13 14 14 15 17 20 21 21 20 18 17 15 14 13 12 11 11 11 10 10 10 10 9 10 11 12 13 14 15 16 17 18 20 22 23 25 26 27 27 28 28 28 28 27 27 27 28 28 29 29 30 31 31 31 32 32 31 31 31 27 20 16 14 13 14 15 15 15 15 15 14 12
10 10 12 14 15 16 17 20 21 21 21 19 17 15 14 12 12 11 11 11 11 11 11 10 10 11 11 12 13 14 15 16 17 18 19 21 22 24 25 26 27 27 28 29 29 29 28 28 28 28 29 29 28 29 30 29 30 32 31 29 30 30 27 23 19 15 14 16 17 16 14 13 12 11
Wind_Direction
253 252 250 249 252 254 252 250 248 247 247 248 248 249 249 249 251 252 256 262 265 267 268 268 268 270 273 276 277 279 282 285 286 287 288 287 288 289 288 286 285 283 278 274 273 272 272 273 274 277 277 278 280 280 281 282 282 283 282 283 282 278 277 277 276 274 271 270 269 269 270 267 267 267
253 251 249 249 250 252 252 251 248 246 246 246 246 247 248 249 250 250 254 260 265 266 268 270 270 272 275 277 280 283 285 288 290 292 292 291 292 293 291 290 288 286 281 276 274 273 273 273 273 275 276 277 279 279 280 281 281 281 280 278 278 276 276 276 274 273 272 269 268 268 268 267 265 265
251 249 248 248 250 252 252 250 246 245 245 245 245 246 247 248 250 251 253 257 260 262 266 270 272 274 278 280 283 285 287 290 292 293 294 293 293 295 293 292 289 287 284 279 276 275 274 273 272 273 275 276 278 279 279 281 280 280 278 276 276 275 273 273 272 272 271 268 267 266 266 266 264 262
251 249 248 248 250 252 253 250 245 243 243 243 243 243 245 247 249 250 252 254 257 260 264 268 271 275 280 282 284 286 287 290 292 293 293 293 294 295 294 293 290 287 286 282 279 277 274 273 272 271 273 274 277 279 278 279 279 277 277 275 276 275 272 270 268 267 268 267 266 264 263 263 262 261
251 248 247 248 249 251 253 251 245 241 241 241 240 241 242 245 247 248 251 255 257 260 264 267 271 274 279 281 283 286 288 290 293 293 293 294 294 296 295 294 291 288 287 285 281 278 274 272 272 270 273 275 276 277 277 278 278 277 276 275 274 274 272 270 268 265 264 264 263 262 262 262 262 261
250 247 245 247 247 248 250 249 245 241 240 240 239 239 240 242 246 248 251 255 257 259 263 267 270 273 277 280 282 286 288 292 296 295 294 295 295 297 297 296 293 290 289 286 281 278 275 274 275 275 276 277 276 277 277 277 277 276 275 274 272 272 270 269 267 265 263 261 261 262 260 261 261 261
249 247 246 247 247 245 247 247 244 241 240 240 238 238 239 242 245 248 251 255 257 258 262 265 269 273 277 280 282 286 290 294 297 296 295 295 296 299 299 297 295 293 291 288 284 282 281 280 281 280 279 278 276 277 277 277 277 276 275 274 272 271 269 268 267 266 264 261 260 260 259 259 260 260
248 247 246 247 246 244 245 245 243 240 239 239 238 237 238 240 244 247 250 253 256 258 260 262 268 272 275 279 282 286 292 296 297 295 295 297 299 301 301 299 298 297 296 294 292 290 288 286 285 283 280 278 278 278 277 277 277 276 275 274 273 271 269 268 267 267 267 265 261 259 257 257 257 257
247 247 247 247 245 243 245 244 241 239 237 237 237 237 238 240 243 246 249 252 255 257 258 261 268 272 274 278 282 287 294 297 297 297 298 301 304 305 304 303 302 300 299 298 297 294 291 288 286 282 279 278 278 277 277 277 278 277 277 276 274 272 269 267 267 267 268 267 266 262 257 255 253 253
247 247 247 246 244 243 245 244 241 239 237 236 236 237 238 240 243 245 247 250 253 255 258 261 265 270 273 278 282 289 295 295 294 298 300 302 305 307 307 304 301 299 299 300 300 298 294 290 285 281 279 279 279 280 280 281 281 280 279 277 274 271 268 267 267 267 267 267 266 265 260 257 253 250
246 246 246 245 244 245 246 245 242 239 237 236 236 237 239 240 242 243 245 249 251 253 256 259 263 267 272 277 283 290 293 290 290 297 299 299 303 306 304 300 298 300 302 302 302 301 298 293 288 284 282 282 284 285 285 285 284 283 281 277 274 272 269 268 267 266 266 266 264 264 262 259 255 251
247 246 245 246 246 247 247 245 243 241 238 237 236 237 238 239 240 241 243 246 248 250 253 256 261 265 271 278 284 288 290 288 291 297 298 297 301 303 300 299 301 304 306 305 305 304 301 296 292 290 288 287 288 288 288 287 286 285 283 280 278 276 273 270 268 267 267 266 264 262 260 258 256 252
247 245 245 246 246 246 246 244 244 243 240 238 237 237 237 237 237 238 241 243 244 247 251 253 258 264 272 278 283 286 289 290 292 298 298 297 298 299 299 302 306 308 309 310 308 306 304 301 299 297 295 294 295 295 295 294 292 289 288 287 284 281 277 273 271 269 267 266 265 262 259 256 255 253
246 245 244 245 245 245 245 243 242 241 238 236 237 239 237 236 236 237 238 240 242 245 248 251 258 265 271 278 283 287 290 290 293 297 297 295 295 298 301 307 312 314 314 312 309 307 305 303 302 301 299 299 300 301 301 299 296 294 292 290 287 282 277 273 271 269 266 265 263 261 258 255 254 253
245 243 242 242 243 243 242 240 238 237 234 233 233 234 234 234 236 237 237 240 242 243 247 253 259 264 270 279 284 286 288 291 295 297 295 293 295 300 304 307 311 317 316 309 306 307 305 302 300 299 299 300 301 300 299 297 296 295 292 290 286 280 275 271 268 267 265 263 262 259 256 254 252 251
243 242 241 241 241 242 240 238 236 233 230 229 229 230 230 231 234 236 238 240 241 243 250 255 258 262 267 275 282 287 291 294 296 296 294 296 299 303 304 303 307 313 312 303 302 305 304 299 297 297 298 300 301 299 299 297 296 296 294 290 284 277 272 269 266 266 264 262 259 257 255 253 251 250
241 240 239 238 238 238 238 236 234 230 226 224 225 227 228 230 232 234 236 237 240 248 254 253 255 261 267 275 284 289 291 292 294 296 299 303 303 302 301 301 305 309 307 300 300 301 301 299 298 299 301 302 303 301 300 299 298 297 295 291 286 279 273 270 267 265 263 260 257 254 253 252 251 250
240 239 237 236 235 235 235 234 231 227 222 221 221 222 225 227 228 229 230 231 236 244 247 246 251 262 271 278 284 287 289 294 298 299 301 304 302 300 300 300 302 307 306 302 298 297 300 302 302 303 306 307 305 302 301 301 301 298 295 292 290 284 275 270 267 265 262 259 256 254 252 251 250 248
240 239 237 235 234 234 234 235 231 224 218 218 219 218 221 222 222 224 225 226 231 237 241 246 254 265 273 277 281 287 294 297 296 294 296 300 299 297 299 300 303 310 312 307 299 297 302 306 306 306 308 307 303 301 302 303 302 299 297 295 292 286 276 269 266 264 262 259 257 254 251 250 249 247
238 238 234 231 232 232 233 235 232 222 216 216 218 217 218 219 220 224 226 226 230 236 242 249 258 265 270 274 278 283 283 283 286 291 296 300 299 297 300 305 311 317 319 315 306 300 303 308 308 307 308 306 302 302 304 304 303 301 300 298 295 289 278 271 266 262 261 259 257 255 252 250 248 246
233 232 230 229 228 227 230 232 226 217 213 214 217 217 217 219 222 225 228 230 234 240 247 255 260 263 265 269 273 275 276 281 289 295 300 304 305 304 306 312 317 321 322 322 313 300 302 310 310 307 307 305 302 303 306 306 305 305 304 301 299 294 283 274 267 263 262 259 256 254 252 250 248 246
228 227 227 227 225 225 226 222 213 211 213 214 215 216 216 219 223 225 227 232 238 245 251 254 255 256 260 268 276 281 287 293 295 299 305 310 310 310 312 315 318 321 325 328 320 303 304 310 307 305 307 306 304 305 309 310 309 309 307 304 300 296 289 280 270 262 260 259 257 254 252 249 247 244
221 221 221 220 221 221 213 204 201 208 215 214 213 214 216 219 223 224 228 235 239 241 240 236 238 247 257 269 282 291 296 299 302 305 309 312 312 314 317 318 317 319 326 332 325 309 304 305 303 303 306 307 307 310 312 310 309 308 306 304 302 299 296 288 273 259 252 251 254 254 251 248 244 241
214 213 213 212 210 202 196 195 197 204 213 214 211 213 216 217 221 225 229 230 226 221 217 220 231 245 258 274 288 297 302 303 305 308 309 313 317 317 319 321 318 317 326 334 324 307 302 302 303 303 299 295 300 307 312 311 310 310 310 310 308 305 303 296 283 266 252 248 251 252 250 246 241 237
211 208 206 201 194 188 189 193 192 195 208 213 208 209 214 216 220 223 219 211 204 203 208 218 234 250 268 288 297 301 304 303 304 309 314 319 321 321 322 325 322 320 329 336 320 304 301 302 304 304 298 291 292 300 308 314 318 321 319 315 311 308 305 301 294 280 260 250 249 249 247 244 239 233
209 208 202 193 187 185 187 189 185 187 202 213 208 204 212 217 216 210 200 193 193 201 211 223 245 269 285 295 297 299 303 305 307 313 319 322 323 324 326 326 324 325 333 338 322 306 302 303 305 304 300 298 296 295 298 307 322 331 327 319 315 310 306 301 294 285 271 257 253 250 247 244 238 231
206 202 194 187 185 183 182 182 177 177 195 212 212 206 211 211 199 187 184 186 194 203 215 232 256 282 293 297 303 306 309 312 314 318 321 322 323 324 326 327 328 331 336 339 335 323 312 309 311 307 301 299 297 293 290 296 314 329 330 324 319 311 306 301 293 287 279 268 262 256 250 246 237 229
202 196 187 183 181 177 172 172 172 178 192 208 210 203 203 194 178 174 179 184 193 206 220 244 264 284 301 311 318 320 320 322 322 322 322 320 320 323 325 329 333 337 341 343 342 338 327 318 315 310 301 294 288 285 287 292 304 320 327 326 321 314 309 303 292 285 281 275 267 257 249 247 237 225
200 191 182 177 173 168 166 168 174 184 195 202 203 201 194 178 172 176 181 186 196 205 218 253 277 293 314 328 331 330 331 331 328 326 323 320 320 322 326 331 336 342 347 347 345 345 339 328 320 312 301 292 284 280 284 291 300 315 326 326 322 316 310 300 287 277 272 268 260 250 244 246 239 223
189 181 175 171 166 164 169 176 182 190 197 199 198 196 186 177 177 179 182 191 200 201 213 263 300 318 330 338 340 339 339 338 334 332 330 328 327 327 330 334 338 344 351 351 349 349 345 339 331 317 303 297 290 280 279 289 300 312 322 325 324 322 318 307 289 274 267 260 253 249 246 244 239 227
174 170 167 166 168 171 178 187 194 200 202 198 190 186 182 179 180 182 186 193 197 197 214 262 318 340 344 347 348 347 346 343 342 341 339 337 337 337 338 340 341 344 351 354 353 352 351 348 343 325 306 301 297 286 281 290 301 308 316 323 328 329 329 323 299 274 263 258 252 248 246 242 235 226
164 166 167 168 174 182 189 196 202 206 203 193 185 182 182 179 180 186 190 187 185 189 199 269 341 348 352 354 352 351 350 348 348 349 347 346 346 345 346 348 348 348 350 353 355 356 355 354 352 339 311 299 300 294 285 287 299 309 316 325 335 341 344 341 317 278 256 251 247 244 245 241 229 221
166 170 173 174 181 190 198 202 204 204 197 190 184 181 181 182 184 189 190 185 180 179 176 29 358 356 358 356 355 355 354 353 353 353 352 353 353 353 352 354 355 355 354 354 356 358 357 357 360 358 338 307 304 303 290 285 300 315 323 331 341 348 354 353 327 285 257 248 241 239 243 237 222 217
174 176 179 183 189 197 203 205 205 199 191 186 183 181 182 185 187 188 187 184 178 169 164 345 355 1 359 357 356 356 356 356 356 356 356 357 358 358 358 358 359 359 357 356 358 359 359 359 1 5 8 356 328 315 298 295 309 322 332 340 347 354 1 3 335 288 268 254 238 230 235 234 223 218
182 183 185 190 196 203 205 204 201 196 189 184 182 183 185 187 188 188 185 181 179 178 179 328 350 358 359 358 357 357 357 358 358 357 358 358 359 2 4 3 2 3 2 0 1 2 1 0 1 3 7 13 15 12 4 336 330 336 344 350 355 0 5 3 339 296 267 249 231 220 224 230 224 220
186 188 192 195 200 203 203 200 197 192 187 184 184 186 187 188 189 190 185 179 181 190 202 288 343 355 358 356 356 357 358 359 358 358 358 359 359 1 4 6 6 6 6 5 4 4 3 3 3 2 2 5 8 8 11 20 8 354 352 352 358 7 10 1 348 350 296 233 223 221 224 225 221 224
189 192 196 200 203 201 199 197 194 188 185 185 186 187 188 189 190 190 188 186 188 196 215 263 322 347 352 353 354 356 357 358 359 359 358 359 360 360 2 5 7 7 7 7 7 7 5 5 6 4 2 2 358 353 357 15 31 20 2 355 357 6 15 15 6 6 2 217 218 227 232 231 235 239
194 195 198 202 203 200 198 196 192 187 186 186 187 188 190 192 192 190 190 192 195 207 226 254 303 331 341 346 349 352 354 356 359 360 359 359 360 0 0 2 5 7 7 8 9 9 8 7 7 7 5 2 354 346 348 0 14 22 17 5 358 2 15 23 18 15 26 134 200 214 222 230 244 239
196 200 204 203 199 198 199 195 191 188 188 188 189 190 192 194 194 193 194 197 203 217 236 254 288 318 333 339 344 348 351 354 357 360 0 359 359 360 360 360 2 4 6 7 9 10 10 9 8 7 7 5 358 351 348 353 4 14 18 12 6 7 13 20 20 20 33 69 116 131 152 185 195 166
191 195 201 201 199 200 199 194 191 191 190 189 191 193 195 197 197 196 199 205 212 226 243 258 283 307 322 332 339 345 348 351 355 358 360 1 359 359 359 358 359 1 4 6 9 10 11 11 9 6 7 6 2 1 1 0 7 16 19 18 21 21 19 22 24 25 33 55 81 97 116 137 140 143
189 187 189 195 199 201 199 195 193 193 191 191 194 197 199 200 199 199 205 212 221 234 248 262 282 300 313 323 332 340 343 346 351 354 356 359 359 358 358 358 358 360 2 5 7 9 10 12 10 6 5 4 3 7 11 10 10 15 18 20 28 33 29 30 33 33 35 50 76 93 104 111 114 125
198 195 195 197 199 200 200 198 196 194 194 195 198 201 203 203 201 203 210 217 227 239 250 263 279 294 307 315 324 333 337 341 347 350 353 356 357 357 357 357 357 359 360 1 4 7 7 8 9 8 7 6 7 11 16 15 12 12 15 19 26 33 34 36 41 43 44 54 76 84 81 84 92 100
211 211 210 209 208 204 201 199 198 197 198 200 202 205 207 207 206 208 215 223 233 243 254 266 277 290 302 310 317 326 332 336 342 347 350 353 354 355 355 356 356 356 356 357 360 3 5 6 8 9 10 11 12 13 15 17 15 13 13 17 22 27 34 43 51 54 55 61 77 83 77 74 77 74
222 220 218 217 216 211 205 201 199 200 201 203 206 209 210 210 210 213 219 229 238 245 257 268 276 285 298 306 312 319 325 330 336 342 346 349 352 352 352 353 353 353 353 353 355 359 4 6 8 10 12 14 14 13 13 16 18 16 15 18 20 23 28 38 50 61 65 66 73 81 82 84 88 88
223 219 218 220 219 215 210 206 203 202 203 205 208 212 212 213 215 219 224 234 242 249 258 268 276 284 293 301 308 313 319 325 331 337 342 345 347 349 349 350 351 351 351 352 353 356 0 4 7 10 13 13 15 15 15 16 18 19 18 19 22 23 26 31 36 45 57 62 67 75 82 87 92 99